Starlink 11233

operational
NORAD ID: 61061 Int'l Des: 2024-164 Owner: SPXS Country: US Constellation: starlink
LEOCIRCULAR

About Starlink 11233

Description loading...

Live Position

Loading 3D Globe...

Upcoming Passes

Altitude History

Altitude vs Time

uPlot chart will show altitude changes over time

Two-Line Element Set

1 61061U 24164M 25351.27949590 -.00000723 00000-0 -11079-5 0 9999
2 61061 53.1585 357.6511 0001025 85.5529 274.5606 15.69706955 72476
Epoch: Dec 17, 2025 • Age: 12 hours

Current Status

Altitude 367.5 km
Velocity 7.69 km/s
Sub-Earth Point -25.29°S, 165.3°W
Launch Date Sep 13, 2024
Age 1.2 years
Type internet

Technical Details

Classification Payload
Mass 960.00 kg
Dry Mass 910.00 kg
Total Mass 960.00 kg
Length 0.30 m
Diameter 4.10 m
Span 29.00 m
Shape Box + pan
Manufacturer SPXS
Bus Type Starlink V2MD
Phase Status In Orbit
Owner/State SPXS/US

Large Constellations

Loading constellations...